Location: Bothwell
(42.3833°S, 147.0000°E)
Time: 09:20:01
(UTC+10:00)

UNISAT 6 - Pass Details

Date: 10 August 2024
Orbit: 589 x 662 km, 97.7° (Epoch: 14 September)

Event Time Altitude Azimuth Distance (km) Brightness Sun altitude
Rises 05:18:47 0° 174° (S) 3,042 ? -21.1°
Reaches altitude 10° 05:21:05 10° 179° (S) 2,124 ? -20.7°
Maximum altitude 05:25:32 46° 252° (WSW) 905 ? -19.9°
Enters shadow 05:26:06 44° 274° (W) 935 ? -19.8°
